Wetbulb
63.81 63.88 63.20 61.71 60.70 60.59 60.14 59.87 59.66 59.79 60.68 61.30 61.54 61.65 61.80 61.74 62.04 62.34 62.01 62.08 62.09 61.60 61.32 62.18 62.86 60.69 57.14 52.97 50.79 55.45 63.35 62.72 58.95 57.23 58.20 57.60 56.09 55.40 52.32 53.00 52.88 49.84 48.02 47.36 48.53 48.95 48.14
63.75 63.19 62.35 60.91 60.08 60.12 59.69 59.50 59.39 59.60 60.44 61.04 61.13 61.52 61.67 61.76 61.78 61.79 61.81 61.66 61.71 61.06 61.33 62.54 61.74 59.32 54.88 48.50 55.14 55.50 55.39 56.73 55.28 55.98 55.57 57.80 56.23 57.07 54.05 51.67 51.13 51.23 47.00 45.56 46.33 46.35 46.53
63.62 62.82 61.50 60.13 59.63 59.43 58.98 58.89 59.11 59.36 60.20 60.56 60.85 61.17 61.33 61.39 61.39 61.50 61.66 61.10 61.26 61.00 61.36 61.83 58.92 55.78 53.06 50.06 55.12 55.28 55.32 54.18 54.34 54.35 52.89 52.88 56.34 55.71 54.46 50.27 51.46 49.05 46.43 46.34 45.12 44.56 43.25
63.09 62.02 60.76 59.39 59.09 58.64 58.46 58.65 59.02 59.24 59.72 60.33 60.33 60.78 60.97 60.95 61.04 61.39 61.61 60.85 60.89 60.95 61.27 61.64 58.96 56.14 50.09 55.40 56.65 53.27 54.91 55.29 55.94 54.50 52.65 52.10 52.52 51.04 49.95 48.82 45.88 45.77 45.23 42.76 42.62 43.95 43.54
62.54 61.37 59.94 58.89 58.34 58.05 58.43 59.30 59.06 59.20 59.31 59.85 59.98 60.00 60.56 60.56 60.48 61.28 60.63 60.74 60.68 61.29 60.47 60.03 55.97 53.55 47.97 58.91 52.00 52.46 52.85 51.78 54.17 53.25 53.85 51.68 51.01 47.74 47.71 45.52 44.33 44.15 40.63 40.52 41.28 42.47 41.94
62.08 60.63 59.19 58.11 57.98 57.70 58.03 58.62 58.42 59.01 59.02 59.18 59.45 59.35 59.45 59.81 59.71 59.94 59.24 59.16 59.13 60.89 57.24 55.27 54.82 51.17 50.80 48.14 51.27 50.71 52.70 51.87 51.01 51.46 50.65 49.88 48.34 45.97 44.41 43.23 38.38 38.30 39.29 40.26 39.40 40.93 39.49
62.06 60.09 58.21 57.78 57.35 57.18 57.54 58.11 57.89 58.66 58.92 59.03 59.04 58.88 58.64 59.23 58.81 58.51 59.85 58.66 54.74 52.59 52.42 48.59 48.48 48.70 48.74 50.70 51.40 49.86 50.39 50.21 51.89 49.76 46.02 45.92 43.70 39.38 40.43 40.93 40.24 39.86 39.07 39.02 40.74 40.38 38.42
61.45 59.02 57.56 57.19 56.87 57.04 57.21 57.28 57.17 57.80 58.67 58.49 58.63 58.50 58.34 58.45 56.86 56.58 59.23 54.32 52.26 54.81 48.76 51.58 49.44 48.94 49.74 49.31 46.47 47.65 51.37 48.50 48.00 44.43 45.15 45.34 40.10 41.20 41.32 41.04 39.75 39.69 39.13 39.30 39.50 39.47 38.58
60.87 58.79 56.92 56.48 56.31 56.61 56.54 56.56 57.04 57.77 58.37 58.24 58.45 57.93 57.72 57.24 56.09 58.73 56.63 54.42 56.56 54.93 51.10 50.59 49.91 47.57 47.45 48.76 43.37 43.85 47.26 47.48 45.84 43.66 43.61 41.95 39.48 41.55 39.52 39.81 38.62 38.74 37.37 36.03 35.29 37.79 37.15
60.52 58.36 56.80 55.69 55.80 56.17 56.08 56.52 57.42 58.02 57.87 57.60 57.45 56.41 57.23 57.53 57.22 56.41 54.78 55.84 57.18 55.08 48.96 47.02 47.77 47.84 48.25 48.16 44.02 46.77 46.43 45.81 44.56 42.20 42.41 41.07 42.03 39.64 40.06 38.00 38.15 36.79 39.16 36.99 35.31 34.36 33.88
60.82 58.60 56.59 55.47 55.51 55.91 56.18 56.36 57.25 57.65 57.30 56.77 56.74 55.99 55.26 56.00 55.96 55.07 54.46 57.27 57.16 54.77 41.27 47.51 47.45 51.26 48.18 44.76 43.76 44.59 46.70 46.89 42.03 41.53 42.42 38.52 39.16 38.71 37.76 36.48 38.35 36.21 38.40 35.73 35.29 35.63 34.33
61.10 58.79 56.58 55.49 55.54 56.02 56.05 56.25 57.01 57.46 57.03 56.19 56.15 54.77 54.64 55.31 56.50 52.89 55.79 56.71 55.24 48.01 39.19 43.98 46.18 43.45 44.10 44.56 43.33 44.62 43.08 45.25 42.73 41.20 41.30 39.51 41.99 39.47 38.15 39.44 38.35 39.11 38.46 36.26 36.05 36.17 32.10
61.04 59.19 56.92 55.24 55.01 55.37 56.07 56.48 57.05 57.54 57.11 55.59 54.35 54.66 54.61 53.69 53.37 54.81 56.56 55.34 47.88 43.40 45.44 42.08 42.25 41.39 41.38 40.65 41.97 40.73 38.63 37.14 36.60 37.95 36.85 37.76 36.21 38.67 38.24 36.95 38.86 37.08 36.09 33.40 32.03 31.71 28.58
60.72 59.15 56.60 54.79 54.35 55.18 56.09 56.41 57.02 56.94 56.93 53.49 52.88 54.10 52.69 51.88 54.11 54.76 54.59 51.53 42.85 41.69 42.01 44.45 42.09 40.94 39.21 40.13 39.86 39.32 38.36 37.09 37.66 36.07 36.50 34.16 35.56 34.63 37.30 33.74 32.25 32.93 33.61 29.30 21.64 25.96 26.94
60.53 58.86 56.45 54.68 54.14 55.01 55.56 56.15 56.99 56.61 56.26 54.23 53.06 54.25 53.93 53.35 53.05 54.27 53.91 46.33 42.97 42.75 42.99 42.12 42.04 39.49 38.60 39.11 39.96 39.43 35.91 35.32 35.31 36.05 34.48 33.28 32.14 35.87 35.48 36.57 35.45 32.87 29.46 32.25 27.12 28.43 25.46
60.17 58.47 56.51 54.96 54.06 54.29 55.01 56.06 56.81 55.72 54.96 52.87 53.99 53.67 51.58 52.36 53.22 55.40 51.07 41.26 41.75 42.77 42.73 42.34 39.63 38.46 38.18 38.58 39.38 39.34 36.93 35.06 34.26 36.12 36.66 33.27 31.67 33.37 34.27 36.06 35.71 32.67 33.07 27.84 29.53 19.69 19.13
59.87 58.17 56.70 55.37 53.82 53.46 54.26 55.36 55.85 54.99 54.27 51.43 53.54 52.32 52.02 52.60 53.83 51.86 45.66 41.88 41.25 42.05 42.51 41.40 39.09 37.49 37.39 37.52 37.95 36.64 34.60 34.13 36.01 35.36 36.86 34.09 32.25 31.14 33.88 30.14 29.17 30.98 28.71 28.96 28.22 26.57 20.42
59.77 58.31 56.95 55.78 53.96 53.07 53.60 54.51 55.31 54.56 52.94 53.16 52.17 49.49 52.01 53.54 49.43 45.25 43.57 42.77 42.74 40.90 42.12 40.58 40.53 38.92 37.75 37.31 37.18 36.41 34.69 34.81 37.57 36.38 32.71 34.31 32.87 29.58 27.04 30.59 32.89 31.56 27.54 27.22 24.79 21.07 24.28
59.65 58.28 57.14 56.11 54.26 53.11 53.07 53.36 54.48 54.27 51.59 53.56 50.48 49.81 52.46 51.79 46.48 41.68 40.18 38.91 39.66 39.57 38.26 39.18 37.70 38.89 38.79 36.49 35.68 36.44 35.41 36.49 38.01 36.76 33.18 34.85 31.57 30.12 26.87 29.10 31.53 27.42 27.22 26.71 25.35 24.53 19.74
59.52 58.24 57.30 56.48 54.62 53.31 52.87 52.72 53.73 54.41 51.01 54.06 51.44 49.74 48.77 47.34 44.40 43.77 40.15 38.00 37.05 39.38 38.02 38.75 37.77 38.34 36.96 35.25 37.45 34.97 34.62 35.51 36.51 37.69 36.57 36.49 31.63 29.59 28.35 27.08 28.08 24.50 24.55 25.52 25.29 22.40 20.42
59.03 58.06 57.38 56.69 54.77 53.63 52.96 53.19 54.21 54.23 51.30 54.51 47.99 43.80 42.40 45.14 42.45 42.09 41.66 39.21 36.53 36.22 38.38 38.54 37.06 36.57 36.57 34.91 34.23 34.11 35.19 34.49 34.95 34.64 33.81 33.70 29.58 29.33 27.41 26.78 27.08 26.12 24.70 24.78 21.02 24.67 19.08
58.53 57.94 57.41 56.73 55.20 53.90 52.78 53.75 54.16 53.80 51.00 51.21 48.14 45.21 42.52 39.97 39.49 41.57 39.08 37.90 37.01 34.97 36.96 36.08 37.07 34.95 36.30 35.27 33.85 33.27 34.38 34.31 32.88 33.81 32.41 32.20 28.87 28.36 24.93 25.96 26.14 24.17 25.34 25.58 25.42 25.45 25.07
58.28 57.61 56.91 56.55 55.07 53.64 52.95 53.87 53.34 53.38 51.21 49.62 45.58 45.53 48.22 35.52 38.97 42.59 39.73 38.64 37.94 37.85 36.07 36.67 37.12 36.07 34.10 32.79 35.27 34.52 35.23 34.50 33.79 32.52 30.39 30.36 29.65 27.13 25.44 24.44 24.68 23.39 25.45 25.44 26.18 27.96 25.89
58.02 57.20 56.58 55.98 54.74 52.46 53.82 54.10 53.57 53.23 50.52 51.60 48.48 48.72 48.86 40.27 40.99 38.66 37.39 38.08 37.12 36.48 35.83 35.30 37.30 36.55 33.94 37.43 36.92 36.66 35.18 33.92 33.52 31.45 32.09 29.28 27.22 26.43 26.30 23.91 20.90 25.88 29.41 28.34 26.04 27.69 28.32
57.90 56.92 56.07 55.72 53.40 52.45 53.11 53.39 54.13 53.30 48.84 50.38 47.42 49.31 46.67 38.21 38.58 37.05 37.43 35.83 36.54 36.64 34.47 34.10 34.08 35.37 38.19 35.82 33.79 30.01 30.43 30.40 29.77 29.43 29.96 31.21 28.89 23.71 25.91 25.13 24.49 24.05 26.70 25.83 24.28 24.58 28.61
57.74 57.08 56.12 55.38 53.27 52.40 52.36 52.31 54.45 50.87 48.15 47.47 44.11 46.93 47.11 40.75 38.05 38.49 37.04 38.54 36.98 35.56 34.62 32.78 36.27 38.26 37.70 36.10 33.79 33.83 30.86 27.82 28.45 27.39 29.57 28.83 28.89 28.81 24.16 21.77 20.78 25.86 28.62 30.05 29.27 22.64 30.30
57.45 56.77 55.90 54.95 53.50 53.27 53.26 51.58 52.64 50.04 47.95 47.76 42.81 44.04 45.78 39.64 36.76 37.10 38.42 37.67 37.69 36.33 35.07 34.30 34.46 34.68 36.38 34.72 33.03 31.85 29.85 27.99 27.59 27.29 26.31 26.47 25.18 25.03 25.66 23.72 25.92 28.71 29.52 30.64 21.20 23.81 31.43
56.89 56.47 55.71 54.51 54.17 53.37 53.47 52.66 51.05 49.70 47.27 46.76 40.25 43.21 44.31 37.44 34.22 35.18 35.55 36.99 36.17 38.73 38.19 34.74 34.46 33.26 34.16 33.71 33.38 31.11 29.99 29.51 27.78 28.51 26.97 26.79 26.56 25.83 21.69 21.08 21.05 30.66 29.69 24.40 29.70 32.84 32.22
56.70 55.96 55.04 54.56 53.75 53.39 52.75 51.78 50.61 48.35 46.55 47.27 41.42 41.90 42.87 39.53 35.02 38.01 36.92 37.12 35.70 35.78 36.51 34.82 35.82 34.65 37.12 33.81 31.94 30.66 28.58 27.85 28.10 29.94 27.52 26.68 29.24 29.04 27.12 28.64 30.79 31.73 31.48 33.39 33.25 31.87 32.78
MSLP
1021.28 1021.11 1021.15 1020.96 1020.61 1020.36 1020.15 1019.79 1019.56 1019.29 1018.81 1018.33 1018.00 1017.73 1017.44 1017.21 1017.02 1016.83 1016.58 1016.33 1016.17 1016.01 1016.05 1015.86 1015.52 1015.20 1014.90 1014.68 1016.09 1016.02 1015.60 1014.76 1013.88 1013.63 1013.38 1012.94 1012.62 1012.84 1013.04 1013.99 1014.52 1015.53 1016.94 1018.11 1019.42 1019.91 1020.89
1021.25 1021.15 1021.24 1021.01 1020.74 1020.51 1020.24 1019.91 1019.68 1019.34 1018.81 1018.38 1018.08 1017.75 1017.48 1017.24 1017.03 1016.81 1016.57 1016.41 1016.30 1016.23 1016.07 1015.84 1015.49 1015.13 1014.61 1015.39 1016.90 1016.45 1015.71 1014.85 1014.58 1014.00 1014.04 1013.80 1013.60 1013.41 1013.95 1014.83 1015.13 1016.23 1017.50 1018.64 1019.92 1020.79 1021.80
1021.25 1021.18 1021.26 1021.09 1020.86 1020.62 1020.31 1020.05 1019.85 1019.43 1018.92 1018.50 1018.16 1017.81 1017.56 1017.30 1017.03 1016.73 1016.51 1016.43 1016.39 1016.22 1016.05 1015.94 1015.62 1015.24 1015.12 1017.05 1017.13 1016.67 1015.94 1015.62 1015.44 1014.89 1014.80 1015.08 1014.63 1014.19 1014.77 1015.84 1016.81 1017.05 1017.49 1018.30 1020.00 1020.63 1021.70
1021.23 1021.26 1021.25 1021.18 1021.00 1020.73 1020.39 1020.15 1019.93 1019.55 1019.09 1018.62 1018.30 1017.96 1017.67 1017.35 1017.05 1016.78 1016.59 1016.53 1016.42 1016.23 1016.08 1015.90 1015.68 1014.98 1016.12 1017.28 1017.14 1016.69 1016.24 1015.63 1015.73 1015.68 1015.64 1015.74 1015.46 1015.45 1016.27 1017.04 1016.85 1016.85 1017.28 1017.80 1020.17 1020.54 1021.55
1021.22 1021.30 1021.30 1021.23 1021.06 1020.85 1020.54 1020.25 1019.99 1019.63 1019.22 1018.74 1018.45 1018.13 1017.77 1017.44 1017.11 1016.91 1016.73 1016.59 1016.42 1016.28 1016.03 1015.72 1015.44 1015.14 1016.63 1017.13 1017.18 1017.42 1017.29 1016.55 1016.08 1015.93 1016.05 1016.15 1016.00 1016.95 1017.06 1016.78 1016.55 1016.76 1016.97 1018.10 1019.53 1021.34 1021.88
1021.20 1021.34 1021.37 1021.28 1021.07 1020.86 1020.62 1020.34 1020.06 1019.73 1019.32 1018.85 1018.53 1018.26 1017.91 1017.62 1017.27 1017.04 1016.78 1016.68 1016.33 1016.09 1016.08 1015.95 1016.18 1016.14 1017.60 1018.29 1018.34 1018.06 1017.65 1017.32 1016.39 1015.91 1015.87 1016.36 1017.03 1017.60 1018.44 1017.74 1018.12 1018.31 1018.10 1018.74 1019.94 1021.89 1023.35
1021.20 1021.40 1021.38 1021.30 1021.11 1020.84 1020.63 1020.35 1020.09 1019.82 1019.39 1018.94 1018.61 1018.35 1018.01 1017.79 1017.51 1017.16 1016.62 1016.41 1016.66 1016.73 1017.69 1018.67 1019.02 1018.80 1019.04 1019.07 1018.84 1018.51 1018.47 1017.54 1016.65 1016.65 1017.06 1018.14 1018.31 1019.90 1020.84 1021.07 1020.81 1020.22 1019.83 1019.78 1020.70 1022.99 1023.73
1021.22 1021.42 1021.37 1021.29 1021.11 1020.87 1020.60 1020.33 1020.08 1019.84 1019.40 1019.00 1018.70 1018.40 1018.08 1017.86 1017.64 1017.33 1016.69 1017.13 1018.38 1018.52 1019.11 1019.70 1019.69 1019.60 1019.94 1019.96 1019.13 1018.86 1018.68 1018.02 1018.09 1018.02 1018.43 1018.88 1020.41 1022.03 1022.26 1022.11 1021.46 1020.77 1020.72 1020.70 1021.73 1023.18 1023.96
1021.26 1021.36 1021.34 1021.28 1021.08 1020.91 1020.58 1020.30 1020.11 1019.80 1019.39 1019.02 1018.73 1018.42 1018.14 1017.91 1017.69 1017.49 1017.92 1018.82 1019.17 1018.72 1018.33 1019.75 1020.15 1020.21 1020.80 1020.63 1021.13 1021.09 1020.80 1020.21 1019.89 1019.73 1019.80 1020.27 1022.69 1022.99 1022.86 1022.61 1021.99 1021.93 1022.05 1022.22 1022.68 1023.08 1024.68
1021.23 1021.33 1021.33 1021.27 1021.12 1020.94 1020.60 1020.34 1020.14 1019.79 1019.39 1019.03 1018.73 1018.46 1018.20 1017.99 1018.15 1018.54 1018.82 1019.35 1019.32 1019.12 1018.42 1020.45 1020.30 1020.97 1021.13 1021.08 1021.72 1022.47 1022.31 1021.88 1021.24 1021.50 1021.85 1022.59 1023.60 1023.67 1023.33 1023.55 1023.87 1022.69 1022.96 1022.95 1022.84 1023.08 1023.38
1021.24 1021.30 1021.32 1021.27 1021.14 1020.94 1020.67 1020.39 1020.14 1019.88 1019.48 1019.03 1018.77 1018.64 1018.44 1018.17 1018.34 1018.79 1019.58 1019.44 1019.28 1018.94 1018.96 1021.48 1021.28 1021.70 1021.81 1021.83 1023.13 1022.70 1023.36 1021.91 1022.33 1022.65 1022.83 1024.34 1024.50 1024.38 1024.31 1025.36 1025.12 1024.34 1023.51 1023.41 1023.22 1023.04 1023.69
1021.24 1021.24 1021.28 1021.26 1021.11 1020.95 1020.71 1020.43 1020.15 1019.96 1019.62 1019.13 1018.83 1018.74 1018.60 1018.49 1018.89 1020.09 1019.88 1019.56 1019.11 1018.90 1020.55 1021.75 1022.08 1022.16 1022.00 1022.95 1023.64 1023.84 1023.66 1023.50 1024.21 1023.59 1023.93 1025.01 1025.80 1026.10 1026.41 1026.30 1026.26 1025.17 1023.04 1023.18 1023.40 1022.97 1022.72
1021.11 1021.22 1021.23 1021.24 1021.12 1020.96 1020.74 1020.49 1020.23 1020.00 1019.72 1019.39 1019.15 1019.02 1019.01 1019.50 1020.07 1020.29 1019.90 1019.15 1018.58 1019.43 1022.44 1022.64 1022.90 1023.13 1023.24 1023.94 1024.31 1024.88 1025.36 1025.49 1025.87 1025.01 1024.88 1025.55 1026.56 1027.20 1027.58 1026.50 1026.34 1025.89 1023.65 1022.63 1022.44 1022.26 1023.65
1020.90 1021.16 1021.21 1021.19 1021.16 1020.97 1020.74 1020.49 1020.27 1020.08 1019.88 1019.63 1019.46 1019.24 1020.41 1020.67 1020.66 1020.33 1019.52 1018.65 1019.55 1022.01 1022.85 1023.65 1023.78 1023.82 1023.95 1024.92 1025.38 1025.79 1026.10 1026.81 1027.83 1027.65 1026.93 1026.84 1027.16 1028.43 1029.02 1029.11 1028.61 1028.01 1027.28 1027.05 1026.63 1024.83 1025.00
1020.62 1021.01 1021.16 1021.15 1021.13 1020.95 1020.70 1020.44 1020.24 1020.13 1019.99 1019.82 1019.69 1019.67 1020.04 1020.57 1020.74 1020.20 1019.28 1019.64 1022.19 1023.27 1024.16 1024.17 1024.16 1024.08 1024.56 1025.33 1025.83 1026.34 1027.75 1028.83 1029.69 1029.47 1029.00 1028.54 1029.01 1030.05 1030.35 1030.29 1029.75 1029.16 1029.24 1030.25 1029.02 1028.13 1027.20
1020.36 1020.74 1021.02 1021.11 1021.02 1020.92 1020.73 1020.45 1020.26 1020.18 1020.01 1019.91 1019.61 1019.83 1020.75 1021.05 1020.70 1019.82 1019.67 1022.55 1024.24 1025.14 1025.32 1025.16 1024.71 1025.35 1025.05 1025.72 1026.00 1026.71 1028.55 1030.71 1030.84 1030.96 1030.66 1030.23 1029.77 1030.56 1031.00 1031.08 1031.36 1031.18 1031.75 1030.99 1030.62 1030.04 1028.46
1020.15 1020.38 1020.74 1020.99 1020.97 1020.89 1020.77 1020.52 1020.37 1020.28 1020.18 1019.96 1019.61 1019.65 1021.02 1021.09 1020.51 1020.06 1021.66 1024.11 1025.46 1026.28 1026.32 1025.99 1025.76 1025.91 1026.40 1026.65 1027.28 1028.17 1029.98 1031.53 1031.83 1031.60 1031.26 1030.97 1030.74 1031.22 1031.36 1032.57 1032.78 1032.27 1032.51 1032.71 1032.91 1032.70 1031.99
1019.90 1020.13 1020.46 1020.75 1020.91 1020.89 1020.77 1020.62 1020.42 1020.31 1020.25 1019.93 1019.84 1020.15 1021.32 1020.71 1021.05 1022.88 1023.91 1025.26 1026.39 1026.84 1026.94 1026.81 1026.81 1027.00 1027.27 1027.82 1028.35 1029.17 1030.55 1031.80 1032.60 1032.41 1031.77 1031.99 1031.42 1031.52 1033.16 1034.23 1034.35 1034.23 1034.69 1034.81 1034.22 1034.27 1034.32
1019.51 1019.85 1020.12 1020.45 1020.74 1020.84 1020.72 1020.66 1020.45 1020.36 1020.29 1019.96 1020.16 1021.11 1021.44 1021.29 1022.14 1024.15 1025.94 1026.68 1027.28 1027.43 1027.71 1027.50 1027.74 1027.94 1028.44 1028.82 1029.59 1030.27 1031.41 1032.86 1032.98 1032.91 1032.63 1032.38 1031.90 1032.05 1033.41 1034.59 1034.85 1035.21 1036.17 1036.36 1036.34 1036.63 1035.87
1018.97 1019.62 1019.77 1020.14 1020.50 1020.67 1020.62 1020.62 1020.48 1020.42 1020.47 1020.34 1020.80 1021.67 1022.13 1022.76 1024.05 1023.83 1025.32 1026.84 1027.68 1028.28 1028.44 1028.49 1028.63 1028.74 1029.01 1029.62 1030.30 1031.02 1031.95 1033.10 1033.43 1033.36 1033.51 1033.12 1032.70 1032.75 1033.65 1034.55 1035.48 1035.99 1036.86 1037.19 1037.10 1036.67 1036.68
1018.74 1019.20 1019.65 1019.82 1020.21 1020.50 1020.47 1020.47 1020.47 1020.49 1020.55 1020.44 1021.75 1023.34 1024.33 1024.34 1024.82 1024.79 1025.39 1026.79 1027.73 1028.47 1028.78 1029.00 1029.33 1029.40 1029.50 1030.19 1030.90 1031.59 1032.50 1033.28 1033.68 1033.90 1033.84 1033.57 1033.36 1033.96 1034.94 1035.53 1036.03 1036.53 1036.92 1037.36 1037.66 1037.35 1037.07
1018.37 1018.88 1019.36 1019.49 1019.77 1020.16 1020.29 1020.32 1020.37 1020.46 1020.68 1020.83 1022.25 1023.35 1024.83 1025.67 1025.83 1025.70 1026.39 1027.28 1027.82 1029.24 1029.59 1029.50 1029.52 1030.49 1030.48 1030.98 1031.84 1032.14 1032.71 1033.16 1033.48 1034.06 1034.24 1034.41 1034.38 1034.81 1035.50 1036.21 1036.46 1036.61 1037.21 1037.50 1037.52 1037.24 1036.96
1017.92 1018.58 1019.01 1019.27 1019.43 1019.69 1019.94 1020.11 1020.13 1020.33 1020.55 1020.96 1022.81 1023.25 1022.97 1026.77 1026.39 1026.21 1026.78 1027.37 1028.18 1029.00 1030.78 1030.85 1030.78 1031.10 1031.95 1032.91 1033.12 1033.56 1033.70 1034.05 1034.32 1034.58 1034.80 1034.92 1034.93 1035.14 1035.42 1036.36 1036.45 1036.62 1036.87 1037.27 1037.34 1036.83 1037.31
1017.54 1018.11 1018.70 1019.07 1019.20 1019.31 1019.50 1019.74 1019.78 1019.95 1020.38 1020.48 1021.59 1021.94 1023.01 1026.37 1026.88 1027.14 1027.65 1028.05 1028.87 1029.58 1030.16 1031.88 1032.01 1032.00 1034.07 1034.10 1034.11 1034.12 1034.31 1034.57 1034.94 1035.63 1035.76 1035.50 1035.63 1035.89 1035.63 1036.19 1036.02 1036.36 1037.21 1037.48 1037.45 1037.40 1037.50
1017.15 1017.63 1018.30 1018.76 1019.02 1019.02 1018.98 1019.27 1019.32 1019.62 1020.28 1020.51 1021.80 1021.75 1022.95 1026.29 1027.55 1028.36 1028.52 1029.05 1029.88 1030.55 1031.57 1032.71 1033.56 1033.91 1034.18 1034.04 1033.86 1033.96 1034.18 1034.65 1035.29 1036.18 1036.20 1036.17 1036.06 1036.25 1036.13 1035.53 1035.83 1036.42 1037.00 1037.52 1037.76 1037.24 1037.52
1016.68 1017.24 1017.82 1018.49 1018.74 1018.77 1018.71 1018.87 1019.00 1019.43 1020.14 1020.75 1022.57 1022.70 1022.98 1025.34 1028.60 1028.77 1029.32 1029.76 1029.89 1030.90 1032.50 1033.96 1034.74 1034.75 1034.49 1033.98 1033.73 1033.67 1033.76 1034.32 1034.84 1035.86 1036.62 1036.57 1036.57 1036.11 1036.06 1035.72 1035.17 1035.94 1037.13 1038.04 1038.17 1037.10 1037.36
1016.26 1016.92 1017.45 1018.15 1018.50 1018.64 1018.74 1018.83 1019.18 1019.57 1020.00 1020.39 1022.92 1023.23 1023.33 1026.98 1029.93 1030.10 1029.84 1030.23 1030.64 1031.17 1032.23 1033.73 1034.62 1034.82 1034.75 1034.08 1033.89 1033.87 1034.04 1034.78 1034.69 1035.06 1035.82 1036.38 1036.66 1036.33 1036.13 1035.82 1035.47 1036.30 1037.24 1038.03 1037.66 1037.54 1037.35
1015.83 1016.59 1017.16 1017.76 1018.21 1018.57 1018.73 1018.85 1019.28 1019.63 1020.03 1020.27 1023.62 1023.72 1023.51 1027.73 1030.94 1031.38 1031.40 1031.34 1031.57 1031.44 1031.73 1033.46 1034.37 1034.84 1034.76 1034.31 1034.21 1034.27 1034.36 1034.65 1034.83 1035.09 1035.50 1035.81 1036.11 1036.49 1036.78 1036.12 1035.82 1036.75 1037.38 1037.56 1037.62 1037.53 1037.46
1015.28 1016.23 1016.96 1017.57 1018.01 1018.24 1018.67 1018.98 1019.26 1019.77 1019.99 1020.13 1023.00 1024.27 1024.40 1026.47 1031.48 1032.35 1032.91 1033.12 1032.96 1032.64 1032.35 1033.44 1033.24 1033.31 1033.50 1034.02 1034.79 1034.98 1034.83 1035.18 1034.81 1034.67 1035.94 1035.92 1036.09 1036.23 1036.31 1035.79 1036.49 1037.14 1037.32 1037.67 1038.00 1037.99 1037.55
Wind_Speed
5 7 9 10 10 11 11 12 12 12 11 12 11 10 9 8 6 3 1 1 2 4 6 6 7 3 2 9 8 16 20 13 7 5 7 4 6 4 6 9 16 16 12 13 14 20 22
4 7 8 9 10 11 11 12 12 12 11 11 11 10 9 8 7 5 3 2 3 5 7 7 5 4 4 13 9 15 13 9 16 9 10 9 8 10 9 5 5 9 16 12 13 17 15
3 6 7 9 10 11 11 12 12 12 11 11 11 10 9 8 7 7 6 5 5 5 5 7 6 3 19 10 7 12 10 7 8 10 7 7 4 1 3 9 6 12 9 9 12 4 5
2 5 7 9 10 11 11 11 11 11 11 11 11 11 9 9 8 8 6 4 3 3 5 2 1 2 8 3 6 18 14 2 9 10 6 7 6 10 8 4 3 2 3 4 8 8 5
3 4 6 8 9 10 10 10 11 11 11 10 10 10 9 9 9 7 6 4 2 5 5 4 2 3 6 3 11 15 9 8 7 4 13 6 7 7 5 4 4 5 7 6 3 10 4
3 3 6 7 9 10 10 10 11 11 10 10 10 9 9 9 10 9 4 4 10 4 6 1 6 3 9 9 8 12 11 9 5 1 3 10 7 9 15 13 6 12 10 6 7 8 11
3 2 4 7 8 9 9 10 11 10 9 9 9 9 8 8 9 9 2 4 4 6 17 10 5 5 6 11 3 15 11 8 5 10 6 10 14 12 11 10 7 9 9 9 12 5 5
4 1 4 6 8 8 9 10 11 11 9 8 9 9 7 7 6 6 2 3 4 4 12 6 6 6 4 6 7 27 20 7 13 10 1 7 11 7 2 9 6 6 6 13 5 2 10
4 1 3 5 7 8 8 9 11 10 9 8 8 8 6 5 5 3 5 4 3 5 4 6 5 7 6 7 9 16 15 4 11 15 16 11 5 4 5 11 16 6 12 17 17 14 3
3 2 3 5 6 7 7 8 10 10 8 8 8 8 4 2 1 1 3 1 2 2 2 12 10 9 11 3 7 10 10 5 6 5 5 8 7 7 9 12 15 6 16 18 15 5 3
4 4 4 4 6 7 7 8 9 9 8 8 7 7 10 4 6 2 3 2 3 4 2 9 6 5 6 8 5 17 9 7 9 8 4 6 9 13 12 9 12 7 23 13 4 2 4
6 5 4 5 5 7 7 8 8 8 6 9 8 7 1 3 4 3 4 3 4 4 4 3 5 9 2 10 5 9 9 8 2 5 14 7 5 8 9 8 5 17 19 3 3 3 4
7 6 5 4 5 6 7 8 8 7 4 5 12 14 7 2 4 5 4 3 4 3 0 4 4 5 5 9 7 10 8 17 9 5 9 4 9 3 11 8 2 20 19 5 4 5 6
8 7 6 4 5 6 7 7 7 5 2 8 9 4 6 5 4 5 3 4 0 1 2 1 2 1 5 9 6 7 3 6 13 7 4 8 3 13 12 7 6 11 15 7 8 9 13
9 8 7 5 5 6 6 7 7 4 1 3 1 3 4 7 7 3 4 2 3 1 1 0 2 1 3 2 3 4 8 5 8 12 7 8 5 2 10 15 8 6 8 4 7 3 7
10 9 7 6 4 5 6 7 6 4 4 2 2 3 4 10 7 3 3 5 2 1 1 2 2 3 1 6 2 4 5 4 4 7 3 4 2 4 3 3 13 10 7 2 3 8 10
12 10 8 7 5 5 6 6 6 3 1 2 1 2 5 8 4 5 4 5 4 1 2 3 3 2 4 3 4 3 4 2 4 3 4 3 3 4 1 8 9 5 5 4 2 4 6
13 11 9 8 6 5 6 5 5 2 3 2 1 2 6 5 3 3 4 4 2 2 3 3 4 4 3 3 3 3 3 4 4 3 3 4 3 4 4 6 8 10 4 5 3 6 2
15 13 11 8 7 6 5 5 4 1 1 2 3 2 3 4 4 4 4 4 4 2 4 2 3 3 2 3 0 2 4 2 4 3 3 2 3 2 6 6 3 4 4 2 2 1 1
16 14 12 10 8 7 5 5 4 1 3 2 2 3 4 5 3 8 9 5 5 3 3 4 4 2 3 2 4 4 3 2 2 3 6 3 3 5 4 4 2 1 2 1 3 3 9
15 14 12 9 8 8 5 4 3 4 6 2 4 3 3 3 3 8 5 4 6 4 3 1 4 3 2 3 2 3 2 4 3 3 2 3 2 2 4 3 0 1 1 2 3 6 5
16 14 13 11 9 7 6 5 2 8 6 4 4 6 3 4 3 6 2 3 5 5 3 2 5 3 2 4 3 2 3 1 2 3 2 3 3 1 3 2 2 2 2 4 4 8 11
17 15 13 11 9 7 7 6 7 11 4 3 2 2 3 2 3 2 3 7 7 9 7 5 10 6 9 6 8 8 8 8 5 2 3 2 2 1 3 1 2 4 1 3 9 10 10
19 16 14 11 9 7 6 7 10 13 4 3 3 4 4 4 1 3 5 5 11 3 7 4 4 3 6 14 13 11 11 10 11 10 5 3 3 2 1 4 3 6 1 6 11 13 4
19 18 14 11 9 5 3 7 11 16 8 4 3 2 5 6 7 9 11 14 14 13 8 6 6 4 13 4 2 4 2 2 6 7 8 6 3 3 2 3 2 4 4 4 6 7 2
20 18 15 12 9 6 4 4 14 16 12 6 4 2 5 11 3 9 10 9 7 5 5 5 6 7 1 2 2 2 3 1 1 3 2 3 5 2 1 3 3 5 3 1 3 3 8
21 19 16 13 10 8 9 11 15 16 10 6 5 4 6 8 3 1 3 5 5 5 6 6 7 4 3 1 2 0 1 2 2 2 2 1 2 1 1 3 3 2 1 3 5 7 15
22 19 17 13 11 10 11 13 14 17 14 6 6 4 4 7 6 5 5 3 4 3 5 8 6 2 2 2 2 2 2 2 3 1 2 3 3 2 2 3 3 5 3 3 5 9 12
24 20 18 15 13 12 13 15 16 16 14 6 7 6 10 11 8 8 12 9 5 4 7 4 2 4 4 4 1 3 3 3 1 2 3 3 2 1 5 4 6 3 2 1 3 9 9
Wind_Direction
11 23 4 358 4 2 359 7 356 347 353 1 1 3 4 3 354 354 352 317 332 313 343 345 349 352 254 70 15 334 330 340 354 7 26 47 79 91 103 108 97 100 101 88 88 79 75
353 31 359 358 2 359 359 3 355 349 352 359 1 3 3 355 344 350 356 353 332 344 345 354 356 260 70 69 340 346 345 9 16 18 35 24 65 95 86 62 15 118 104 102 72 81 77
341 37 359 357 0 358 359 359 352 349 351 358 360 1 357 349 344 341 340 330 337 332 345 19 12 35 63 48 5 359 17 36 17 36 63 26 352 337 97 100 98 130 128 125 43 31 100
80 34 4 359 358 357 358 355 350 345 349 359 1 357 351 349 350 347 331 344 61 49 25 25 19 67 76 5 0 21 357 358 40 51 69 18 31 76 27 112 122 194 217 277 39 4 54
116 35 4 360 358 352 355 355 349 344 348 358 360 355 351 353 356 2 21 77 351 44 21 5 38 9 60 8 4 359 1 348 312 78 48 43 61 55 26 319 177 57 334 322 171 30 2
122 32 1 356 353 349 351 355 349 342 346 357 356 352 351 356 357 356 346 16 347 54 2 137 53 139 37 338 335 339 352 344 5 329 80 33 60 64 31 16 16 324 318 321 329 33 63
129 7 358 353 345 347 348 356 348 338 344 353 353 348 350 355 0 351 267 254 218 53 40 54 27 78 356 332 285 10 350 321 360 52 56 33 62 40 19 11 310 296 291 306 357 62 22
123 358 354 344 341 339 348 354 348 338 345 353 350 346 346 344 351 341 29 38 38 107 87 48 56 52 13 345 359 8 354 51 41 53 129 94 61 18 342 4 335 326 328 347 351 83 320
144 274 328 330 337 332 348 355 343 335 345 354 353 352 341 352 293 29 55 82 337 311 81 48 43 30 3 4 43 357 4 31 42 51 53 73 25 316 8 23 5 31 1 335 312 317 37
164 237 294 320 328 328 347 353 339 334 347 359 8 16 14 301 192 114 78 123 305 304 151 11 1 35 358 351 61 19 13 4 54 74 59 62 21 20 26 37 359 329 342 319 311 282 344
208 232 275 305 321 325 342 350 343 337 353 11 27 35 41 20 111 133 73 295 305 238 226 360 13 347 26 57 322 26 358 39 65 43 265 61 29 22 33 13 358 327 319 321 301 226 236
221 231 255 292 315 324 343 345 349 340 5 26 51 39 31 54 73 37 306 284 245 234 80 34 357 355 26 28 41 330 18 49 38 52 63 76 56 36 352 345 13 323 316 181 213 210 220
214 234 237 276 308 327 346 347 349 340 17 57 61 56 53 12 73 332 297 245 243 13 164 35 7 7 66 21 33 17 38 46 29 334 34 124 43 63 11 349 48 7 354 356 315 337 14
209 228 235 259 300 328 346 351 349 340 37 80 69 52 60 57 347 310 248 239 134 48 47 70 340 14 58 360 50 27 73 55 38 3 16 5 165 17 9 33 325 30 20 33 314 328 323
201 221 232 245 286 323 345 351 356 341 189 117 230 61 59 8 346 277 258 54 51 99 60 144 220 108 85 90 352 68 49 46 23 8 13 347 83 103 52 42 356 15 30 348 285 243 270
196 207 228 243 270 316 340 356 7 360 134 192 79 91 41 333 329 269 73 91 111 352 304 247 58 336 9 16 21 44 37 10 17 15 331 56 257 30 32 288 56 62 346 295 12 348 315
200 199 215 238 260 305 331 359 9 37 149 251 59 120 27 338 275 49 74 83 125 54 283 357 109 109 55 36 35 60 40 72 355 11 17 352 289 89 217 29 10 30 26 44 282 335 314
203 198 206 226 251 288 323 348 9 29 185 75 97 139 13 304 62 42 87 92 109 122 54 85 79 69 57 52 70 97 86 41 357 323 25 25 343 48 64 94 68 54 50 355 339 348 33
199 198 201 214 240 269 309 330 359 34 260 153 76 71 59 297 132 107 113 88 59 111 36 74 93 33 66 83 91 71 94 66 20 25 18 38 71 232 180 183 175 52 48 32 85 345 95
196 202 195 208 229 258 293 315 336 134 183 78 148 125 63 60 20 129 137 125 116 51 80 57 101 124 128 99 36 126 117 108 46 54 35 278 69 15 346 24 350 40 81 344 343 305 334
198 192 202 197 224 257 279 302 316 175 177 127 5 92 359 108 94 114 92 122 131 127 77 48 92 66 120 116 118 98 108 143 96 15 42 336 94 81 72 66 117 13 195 233 266 323 283
194 192 198 201 207 245 272 281 238 169 187 84 139 142 83 73 95 112 24 136 138 133 348 92 124 98 53 89 39 123 136 202 59 98 63 22 109 157 108 338 254 236 209 284 279 298 302
188 192 201 201 206 232 269 261 201 183 214 120 128 91 112 328 129 163 116 142 147 137 59 47 121 111 77 71 89 82 75 75 71 8 86 29 118 287 94 114 159 202 351 314 303 303 329
189 186 197 201 209 228 253 251 203 181 216 107 153 135 118 123 69 82 120 104 129 64 122 77 35 83 114 119 112 97 83 82 70 52 16 110 84 52 94 185 225 91 136 296 297 306 330
189 184 189 195 206 205 226 238 197 165 157 100 122 142 123 103 118 108 110 115 102 86 77 72 33 58 149 160 107 124 123 158 78 48 43 21 113 96 292 291 3 192 192 305 333 320 31
187 183 177 192 192 185 149 196 169 141 135 97 74 5 98 118 170 119 117 148 128 114 104 74 69 144 301 81 83 35 2 8 134 149 59 62 54 280 140 290 292 83 129 275 276 221 344
184 179 172 181 182 177 151 136 150 139 120 108 89 21 94 103 71 345 123 149 116 103 91 131 162 194 315 102 88 21 130 14 303 268 125 55 13 13 114 276 249 144 53 140 288 350 338
180 173 169 167 166 160 152 144 143 140 132 79 85 17 91 93 70 17 21 119 122 159 140 137 138 186 107 112 172 135 226 127 242 116 222 249 185 146 139 241 268 134 168 287 357 320 331
171 166 163 160 160 152 150 146 146 142 138 120 94 82 67 74 92 92 80 50 22 16 119 163 2 135 146 110 169 124 168 184 291 244 194 229 264 304 229 21 87 130 303 285 296 315 322